Tiempo cada hora 3 internacional

Hoy, 24 Junio, Jueves

Tiempo Temperatura Precipitaciones Viento Presión Humedad
00:00 +29°C° 0 mm 5 mps 749 mmHg 34%
01:00 +28°C° 0 mm 4 mps 748 mmHg 39%
02:00 +28°C° 0 mm 3 mps 748 mmHg 40%
03:00 +28°C° 0 mm 3 mps 748 mmHg 41%
04:00 +27°C° 0 mm 2 mps 748 mmHg 43%
05:00 +28°C° 0 mm 4 mps 748 mmHg 43%
06:00 +29°C° 0 mm 5 mps 748 mmHg 43%
07:00 +29°C° 0 mm 6 mps 749 mmHg 43%
08:00 +30°C° 0 mm 6 mps 749 mmHg 40%
09:00 +32°C° 0 mm 7 mps 749 mmHg 37%
10:00 +33°C° 0 mm 7 mps 749 mmHg 34%
11:00 +33°C° 0 mm 7 mps 749 mmHg 33%
12:00 +34°C° 0 mm 6 mps 749 mmHg 32%
13:00 +34°C° 0 mm 5 mps 750 mmHg 31%
14:00 +34°C° 0 mm 6 mps 750 mmHg 30%
15:00 +34°C° 0 mm 6 mps 749 mmHg 28%
16:00 +34°C° 0 mm 7 mps 749 mmHg 27%
17:00 +33°C° 0 mm 7 mps 750 mmHg 26%
18:00 +32°C° 0 mm 6 mps 750 mmHg 25%
19:00 +30°C° 0 mm 6 mps 750 mmHg 23%
20:00 +29°C° 0 mm 6 mps 750 mmHg 22%
21:00 +28°C° 0 mm 5 mps 751 mmHg 20%
22:00 +27°C° 0 mm 5 mps 751 mmHg 18%
23:00 +26°C° 0 mm 5 mps 751 mmHg 19%

Mañana, 25 Junio, Viernes

Tiempo Temperatura Precipitaciones Viento Presión Humedad
00:00 +25°C° 0 mm 4 mps 751 mmHg 20%
01:00 +23°C° 0 mm 4 mps 751 mmHg 21%
02:00 +22°C° 0 mm 3 mps 751 mmHg 23%
03:00 +21°C° 0 mm 3 mps 751 mmHg 24%
04:00 +21°C° 0 mm 3 mps 751 mmHg 25%
05:00 +22°C° 0 mm 3 mps 751 mmHg 24%
06:00 +24°C° 0 mm 2 mps 751 mmHg 23%
07:00 +25°C° 0 mm 2 mps 752 mmHg 22%
08:00 +27°C° 0 mm 2 mps 752 mmHg 21%
09:00 +28°C° 0 mm 2 mps 752 mmHg 19%
10:00 +29°C° 0 mm 3 mps 751 mmHg 17%
11:00 +30°C° 0 mm 3 mps 751 mmHg 16%
12:00 +31°C° 0 mm 3 mps 751 mmHg 15%
13:00 +33°C° 0 mm 3 mps 751 mmHg 14%
14:00 +33°C° 0 mm 4 mps 750 mmHg 14%
15:00 +34°C° 0 mm 4 mps 750 mmHg 14%
16:00 +34°C° 0 mm 4 mps 750 mmHg 14%
17:00 +33°C° 0 mm 5 mps 750 mmHg 15%
18:00 +32°C° 0 mm 5 mps 750 mmHg 17%
19:00 +30°C° 0 mm 5 mps 749 mmHg 18%
20:00 +29°C° 0 mm 5 mps 749 mmHg 18%
21:00 +28°C° 0 mm 4 mps 750 mmHg 18%
22:00 +26°C° 0 mm 4 mps 750 mmHg 18%
23:00 +26°C° 0 mm 4 mps 749 mmHg 19%

Pasado mañana, 26 Junio, Sábado

Tiempo Temperatura Precipitaciones Viento Presión Humedad
00:00 +25°C° 0 mm 3 mps 749 mmHg 20%
01:00 +25°C° 0 mm 3 mps 749 mmHg 22%
02:00 +24°C° 0 mm 3 mps 749 mmHg 23%
03:00 +24°C° 0 mm 3 mps 749 mmHg 25%
04:00 +24°C° 0 mm 3 mps 749 mmHg 27%
05:00 +25°C° 0 mm 2 mps 749 mmHg 26%
06:00 +27°C° 0 mm 2 mps 750 mmHg 24%
07:00 +28°C° 0 mm 2 mps 750 mmHg 23%
08:00 +30°C° 0 mm 3 mps 750 mmHg 21%
09:00 +31°C° 0 mm 3 mps 750 mmHg 19%
10:00 +33°C° 0 mm 3 mps 750 mmHg 18%
11:00 +34°C° 0 mm 3 mps 750 mmHg 18%
12:00 +35°C° 0 mm 3 mps 750 mmHg 18%
13:00 +36°C° 0 mm 3 mps 750 mmHg 18%
14:00 +36°C° 0 mm 3 mps 749 mmHg 18%
15:00 +36°C° 0 mm 3 mps 749 mmHg 18%
16:00 +36°C° 0 mm 3 mps 749 mmHg 18%
17:00 +35°C° 0 mm 3 mps 749 mmHg 19%
18:00 +35°C° 0 mm 3 mps 749 mmHg 21%
19:00 +34°C° 0 mm 3 mps 749 mmHg 22%
20:00 +33°C° 0 mm 3 mps 749 mmHg 23%
21:00 +31°C° 0 mm 3 mps 749 mmHg 24%
22:00 +30°C° 0 mm 3 mps 749 mmHg 25%
23:00 +29°C° 0 mm 3 mps 749 mmHg 26%

27 Junio, Domingo

Tiempo Temperatura Precipitaciones Viento Presión Humedad
00:00 +29°C° 0 mm 3 mps 748 mmHg 27%
01:00 +28°C° 0 mm 3 mps 748 mmHg 27%
02:00 +28°C° 0 mm 3 mps 748 mmHg 28%
03:00 +27°C° 0 mm 3 mps 749 mmHg 28%
04:00 +27°C° 0 mm 3 mps 749 mmHg 29%
05:00 +28°C° 0 mm 3 mps 749 mmHg 26%
06:00 +30°C° 0 mm 3 mps 749 mmHg 24%
07:00 +33°C° 0 mm 4 mps 749 mmHg 21%
08:00 +34°C° 0 mm 3 mps 749 mmHg 20%
09:00 +35°C° 0 mm 3 mps 749 mmHg 18%
10:00 +37°C° 0 mm 2 mps 749 mmHg 17%
11:00 +38°C° 0 mm 2 mps 749 mmHg 16%
12:00 +37°C° 0 mm 1 mps 748 mmHg 16%
13:00 +39°C° 0 mm 1 mps 748 mmHg 15%
14:00 +39°C° 0 mm 1 mps 748 mmHg 15%
15:00 +39°C° 0 mm 1 mps 747 mmHg 15%
16:00 +40°C° 0 mm 1 mps 747 mmHg 14%
17:00 +39°C° 0 mm 1 mps 747 mmHg 16%
18:00 +37°C° 0 mm 1 mps 747 mmHg 17%
19:00 +37°C° 0 mm 2 mps 747 mmHg 18%
20:00 +36°C° 0 mm 2 mps 747 mmHg 20%
21:00 +35°C° 0 mm 3 mps 747 mmHg 21%
22:00 +34°C° 0 mm 3 mps 747 mmHg 22%
23:00 +33°C° 0 mm 3 mps 747 mmHg 22%

28 Junio, Lunes

Tiempo Temperatura Precipitaciones Viento Presión Humedad
00:00 +33°C° 0 mm 3 mps 746 mmHg 23%
01:00 +31°C° 0 mm 3 mps 746 mmHg 23%
02:00 +31°C° 0 mm 3 mps 746 mmHg 24%
03:00 +30°C° 0 mm 3 mps 746 mmHg 24%
04:00 +30°C° 0 mm 3 mps 746 mmHg 25%
05:00 +31°C° 0 mm 3 mps 746 mmHg 23%
06:00 +34°C° 0 mm 3 mps 747 mmHg 21%
07:00 +35°C° 0 mm 3 mps 747 mmHg 19%
08:00 +37°C° 0 mm 3 mps 747 mmHg 18%
09:00 +38°C° 0 mm 3 mps 746 mmHg 17%
10:00 +39°C° 0 mm 3 mps 746 mmHg 15%
11:00 +40°C° 0 mm 3 mps 746 mmHg 15%
12:00 +40°C° 0 mm 3 mps 746 mmHg 14%
13:00 +42°C° 0 mm 3 mps 746 mmHg 14%
14:00 +42°C° 0 mm 3 mps 745 mmHg 14%
15:00 +42°C° 0 mm 4 mps 745 mmHg 14%
16:00 +42°C° 0 mm 4 mps 745 mmHg 14%
17:00 +40°C° 0 mm 3 mps 745 mmHg 15%
18:00 +39°C° 0 mm 3 mps 745 mmHg 17%
19:00 +38°C° 0 mm 2 mps 745 mmHg 18%
20:00 +37°C° 0 mm 2 mps 745 mmHg 19%
21:00 +36°C° 0 mm 2 mps 745 mmHg 20%
22:00 +34°C° 0 mm 1 mps 745 mmHg 20%
23:00 +34°C° 0 mm 2 mps 745 mmHg 22%

29 Junio, Martes

Tiempo Temperatura Precipitaciones Viento Presión Humedad
00:00 +34°C° 0 mm 3 mps 745 mmHg 24%
01:00 +33°C° 0 mm 4 mps 745 mmHg 25%
02:00 +33°C° 0 mm 4 mps 745 mmHg 28%
03:00 +32°C° 0 mm 4 mps 745 mmHg 31%
04:00 +30°C° 0 mm 4 mps 745 mmHg 33%
05:00 +32°C° 0 mm 5 mps 746 mmHg 31%
06:00 +33°C° 0 mm 6 mps 746 mmHg 30%
07:00 +33°C° 0 mm 6 mps 747 mmHg 28%
08:00 +35°C° 0 mm 6 mps 747 mmHg 25%
09:00 +36°C° 0 mm 6 mps 747 mmHg 23%
10:00 +39°C° 0 mm 6 mps 747 mmHg 21%
11:00 +40°C° 0 mm 5 mps 747 mmHg 20%
12:00 +40°C° 0 mm 5 mps 747 mmHg 19%
13:00 +41°C° 0 mm 5 mps 747 mmHg 18%
14:00 +41°C° 0 mm 5 mps 747 mmHg 18%
15:00 +41°C° 0 mm 6 mps 747 mmHg 18%
16:00 +41°C° 0 mm 6 mps 746 mmHg 18%
17:00 +40°C° 0 mm 6 mps 747 mmHg 19%
18:00 +39°C° 0 mm 6 mps 747 mmHg 19%
19:00 +38°C° 0 mm 6 mps 747 mmHg 19%
20:00 +35°C° 0 mm 5 mps 747 mmHg 20%
21:00 +34°C° 0 mm 5 mps 747 mmHg 20%
22:00 +33°C° 0 mm 4 mps 747 mmHg 20%
23:00 +32°C° 0 mm 4 mps 747 mmHg 23%
Mostrar más

Necesitamos Su Consentimiento

Meteoprog y nuestros Proveedores de Servicios pueden almacenar y acceder a sus datos personales como cookies, identificadores de dispositivo u otras tecnologías similares de su dispositivo y procesar dichos datos para personalizar contenido y anuncios, además de ofrecer funciones de redes sociales y analizar el tráfico.

  • Almacenar y/o acceder a información en su dispositivo

    Se puede almacenar o acceder a cookies, identificadores de dispositivo u otra información de su dispositivo para los fines anteriormente indicados.

  • Anuncios y contenido personalizados, medición de anuncios y contenido, percepciones del público, y desarrollo de productos

    Los anuncios y el contenido pueden personalizarse en base a su perfil. Se pueden añadir más datos para personalizar mejor los anuncios y contenidos. Se puede medir el rendimiento de los anuncios y contenidos. Se puede obtener la percepción sobre el público que ha visto los anuncios y contenidos. Dichos datos pueden usarse para desarrollar o mejorar la experiencia del usuario, sistemas y software.

Al hacer clic en ‘Estoy De Acuerdo’ usted permitirá el uso de las cookies, identificadores de dispositivo, balizas web u otras tecnologías similares indicadas. Su configuración puede cambiarse desde el navegador de su dispositivo.

Para ciertos fines, los intereses legítimos pueden ser considerados por encima del consentimiento. Puede leer más sobre ello en nuestra Política de Privacidad y Cookies.